Volver al catálogo

STARLINK-35257

ActivoComunicacionesVLEO
NORAD 66331·PAYLOAD·🇺🇸 United States

Lanzado Nov 6, 2025 desde Cape Canaveral Space Force Station

Loading…

Próximos Pases (próximas 24 horas)

TLE

ActualizadoSource: CelesTrak SupGP

Época: Sep 15, 2026, 03:59 UTC

1 66331C 25253N   26258.16645833 -.00019643  00000+0 -71163-3 0  2588
2 66331  43.0025 222.1560 0001202 268.4059 168.8159 15.27581183    12

Sigue STARLINK-35257 en tiempo real con AllMySat

Download on the App Store